Location: Hilton Head Island
(32.2163°N, 80.7526°W)
Time: 20:14:28
(UTC-04:00)

Vanguard 1 - Pass Details

Date: 25 February 2026
Orbit: 653 x 3818 km, 34.2° (Epoch: 9 March)

Event Time Altitude Azimuth Distance (km) Brightness Sun altitude
Rises 12:14:49 0° 223° (SW) 3,184 13.1 48.6°
Reaches altitude 10° 12:16:57 10° 215° (SW) 2,424 12.7 48.6°
Maximum altitude 12:22:13 42° 145° (SE) 1,530 12.6 48.8°
Drops below altitude 10° 12:30:50 10° 78° (ENE) 3,973 13.2 48.9°
Sets 12:35:21 0° 73° (ENE) 5,506 13.8 48.9°
